User: anonymous   Login
Location: DaVinci Observatory
(43.1080°N, 78.6453°W)
Time: 18:37:08
(UTC-04:00)
Language:

TIGRISAT - Orbit

View from above orbital plane
View from above orbital plane
View from above satellite
View from above satellite

Ground track
Ground track

The orbit data is extracted from the following two-line orbital elements,

1 40043U 14033AK  18198.71562194  .00000095  00000-0  21450-4 0  9994
2 40043  97.8046  74.9129 0061514 100.1977 260.6177 14.74154750219101
Epoch (UTC): 17 July 2018 17:10:29
Eccentricity: 0.0061514
inclination: 97.8046°
perigee height: 604 km
apogee height: 691 km
right ascension of ascending node: 74.9129°
argument of perigee: 100.1977°
revolutions per day: 14.74154750
mean anomaly at epoch: 260.6177°
orbit number at epoch: 21910

The dashed part of the orbit path shows where the satellite is in the earth's shadow,  

DLR